| time (UTC) | temp F | wind direction | speed MPH | gust MPH | rain 1hr in | rain 24hr in | rain mn in | humidity % | barometer mb |
| 20260503025514 | 56 | 0 | 0.0 | 0.0 | 0.00 | 0.00 | 0.00 | 27 | 1010.3 |
| 20260503025123 | 56 | 0 | 0.0 | 0.0 | 0.00 | 0.00 | 0.00 | 27 | 1010.3 |
| 20260503023313 | 59 | 0 | 0.0 | 1.0 | 0.00 | 0.00 | 0.00 | 18 | 1010.2 |
| 20260503022313 | 60 | 22 | 1.0 | 1.0 | 0.00 | 0.00 | 0.00 | 18 | 1010.2 |
| 20260503021428 | 61 | 22 | 1.0 | 2.0 | 0.00 | 0.00 | 0.00 | 17 | 1010.1 |
| 20260503020518 | 62 | 22 | 1.0 | 2.0 | 0.00 | 0.00 | 0.00 | 16 | 1010.0 |
| 20260503015628 | 63 | 22 | 1.0 | 2.0 | 0.00 | 0.00 | 0.00 | 15 | 1010.0 |
| 20260503014641 | 64 | 22 | 1.0 | 2.0 | 0.00 | 0.00 | 0.00 | 14 | 1010.0 |
| 20260503013933 | 66 | 45 | 1.0 | 1.0 | 0.00 | 0.00 | 0.00 | 13 | 1009.9 |
| 20260503013821 | 66 | 45 | 1.0 | 1.0 | 0.00 | 0.00 | 0.00 | 13 | 1009.9 |
| 20260503012833 | 67 | 45 | 2.0 | 4.0 | 0.00 | 0.00 | 0.00 | 13 | 1009.9 |
| 20260503011931 | 67 | 45 | 4.0 | 9.0 | 0.00 | 0.00 | 0.00 | 12 | 1009.8 |
| 20260503011853 | 67 | 45 | 4.0 | 9.0 | 0.00 | 0.00 | 0.00 | 12 | 1009.8 |
| 20260503010928 | 68 | 45 | 3.0 | 6.0 | 0.00 | 0.00 | 0.00 | 13 | 1009.7 |
| 20260503005953 | 69 | 68 | 3.0 | 7.0 | 0.00 | 0.00 | 0.00 | 12 | 1009.6 |
| 20260503005008 | 69 | 112 | 4.0 | 9.0 | 0.00 | 0.00 | 0.00 | 14 | 1009.6 |
| 20260503002138 | 70 | 90 | 2.0 | 6.0 | 0.00 | 0.00 | 0.00 | 16 | 1009.7 |
| 20260503001318 | 70 | 90 | 3.0 | 6.0 | 0.00 | 0.00 | 0.00 | 17 | 1009.9 |
| 20260503000328 | 70 | 68 | 2.0 | 9.0 | 0.00 | 0.00 | 0.00 | 13 | 1009.9 |
| 20260502234443 | 71 | 45 | 3.0 | 6.0 | 0.00 | 0.00 | 0.00 | 14 | 1009.9 |
| 20260502233513 | 71 | 68 | 3.0 | 6.0 | 0.00 | 0.00 | 0.00 | 13 | 1010.0 |
| 20260502232558 | 71 | 45 | 3.0 | 6.0 | 0.00 | 0.00 | 0.00 | 13 | 1010.1 |
| 20260502230821 | 72 | 158 | 3.0 | 7.0 | 0.00 | 0.00 | 0.00 | 14 | 1010.3 |
| 20260502225918 | 72 | 158 | 2.0 | 10.0 | 0.00 | 0.00 | 0.00 | 15 | 1010.3 |
| 20260502224921 | 72 | 180 | 3.0 | 6.0 | 0.00 | 0.00 | 0.00 | 15 | 1010.3 |
| 20260502223953 | 72 | 112 | 3.0 | 9.0 | 0.00 | 0.00 | 0.00 | 13 | 1010.4 |
| 20260502223033 | 72 | 158 | 4.0 | 6.0 | 0.00 | 0.00 | 0.00 | 18 | 1010.5 |
| 20260502222153 | 73 | 90 | 4.0 | 10.0 | 0.00 | 0.00 | 0.00 | 15 | 1010.7 |
| 20260502221243 | 74 | 158 | 5.0 | 10.0 | 0.00 | 0.00 | 0.00 | 17 | 1010.9 |
| 20260502220432 | 74 | 22 | 2.0 | 8.0 | 0.00 | 0.00 | 0.00 | 13 | 1011.0 |
| 20260502214718 | 74 | 158 | 4.0 | 8.0 | 0.00 | 0.00 | 0.00 | 19 | 1011.3 |
| 20260502213728 | 74 | 158 | 4.0 | 9.0 | 0.00 | 0.00 | 0.00 | 17 | 1011.6 |
| 20260502212928 | 73 | 45 | 6.0 | 14.0 | 0.00 | 0.00 | 0.00 | 14 | 1011.7 |
| 20260502212118 | 74 | 112 | 5.0 | 12.0 | 0.00 | 0.00 | 0.00 | 16 | 1011.8 |
| 20260502211234 | 74 | 158 | 4.0 | 10.0 | 0.00 | 0.00 | 0.00 | 18 | 1012.1 |
| 20260502210313 | 73 | 135 | 4.0 | 13.0 | 0.00 | 0.00 | 0.00 | 18 | 1012.3 |
| 20260502205443 | 72 | 135 | 5.0 | 10.0 | 0.00 | 0.00 | 0.00 | 15 | 1012.4 |
| 20260502204533 | 71 | 45 | 5.0 | 11.0 | 0.00 | 0.00 | 0.00 | 15 | 1012.5 |
| 20260502203933 | 72 | 45 | 3.0 | 6.0 | 0.00 | 0.00 | 0.00 | 16 | 1012.7 |
| 20260502203648 | 72 | 45 | 3.0 | 6.0 | 0.00 | 0.00 | 0.00 | 16 | 1012.7 |
| 20260502202758 | 72 | 68 | 4.0 | 7.0 | 0.00 | 0.00 | 0.00 | 17 | 1012.8 |
| 20260502201916 | 71 | 45 | 4.0 | 10.0 | 0.00 | 0.00 | 0.00 | 21 | 1013.0 |
| 20260502201018 | 73 | 202 | 2.0 | 4.0 | 0.00 | 0.00 | 0.00 | 22 | 1013.1 |
| 20260502195228 | 71 | 158 | 4.0 | 7.0 | 0.00 | 0.00 | 0.00 | 18 | 1013.3 |
| 20260502193418 | 70 | 68 | 3.0 | 9.0 | 0.00 | 0.00 | 0.00 | 21 | 1013.6 |
| 20260502192441 | 71 | 158 | 5.0 | 9.0 | 0.00 | 0.00 | 0.00 | 18 | 1013.8 |
| 20260502191553 | 70 | 68 | 4.0 | 11.0 | 0.00 | 0.00 | 0.00 | 18 | 1013.7 |
| 20260502190748 | 70 | 135 | 3.0 | 6.0 | 0.00 | 0.00 | 0.00 | 18 | 1014.1 |
| 20260502185858 | 71 | 180 | 3.0 | 7.0 | 0.00 | 0.00 | 0.00 | 19 | 1014.3 |
| 20260502184938 | 70 | 180 | 3.0 | 7.0 | 0.00 | 0.00 | 0.00 | 23 | 1014.5 |
| 20260502183948 | 70 | 180 | 2.0 | 5.0 | 0.00 | 0.00 | 0.00 | 21 | 1014.6 |
| 20260502183033 | 68 | 22 | 2.0 | 7.0 | 0.00 | 0.00 | 0.00 | 19 | 1014.8 |
| 20260502182233 | 68 | 135 | 3.0 | 7.0 | 0.00 | 0.00 | 0.00 | 25 | 1014.9 |
| 20260502181408 | 67 | 45 | 3.0 | 7.0 | 0.00 | 0.00 | 0.00 | 19 | 1015.1 |
| 20260502162505 | 64 | 135 | 2.0 | 5.0 | 0.00 | 0.00 | 0.00 | 24 | 1016.2 |
| 20260502161549 | 64 | 135 | 2.0 | 5.0 | 0.00 | 0.00 | 0.00 | 23 | 1016.3 |
| 20260502160708 | 63 | 158 | 2.0 | 4.0 | 0.00 | 0.00 | 0.00 | 24 | 1016.5 |
| 20260502152201 | 56 | 158 | 2.0 | 4.0 | 0.00 | 0.00 | 0.00 | 40 | 1016.9 |
| 20260502150645 | 53 | 180 | 2.0 | 4.0 | 0.00 | 0.00 | 0.00 | 43 | 1017.2 |
| 20260502150448 | 53 | 180 | 2.0 | 4.0 | 0.00 | 0.00 | 0.00 | 43 | 1017.2 |
| 20260502123353 | 35 | 0 | 0.0 | 2.0 | 0.00 | 0.00 | 0.00 | 69 | 1017.4 |
| 20260502122553 | 35 | 0 | 0.0 | 1.0 | 0.00 | 0.00 | 0.00 | 68 | 1017.4 |
| 20260502121733 | 36 | 0 | 0.0 | 1.0 | 0.00 | 0.00 | 0.00 | 67 | 1017.4 |
| 20260502120733 | 36 | 0 | 0.0 | 1.0 | 0.00 | 0.00 | 0.00 | 64 | 1017.4 |
| 20260502115931 | 37 | 0 | 0.0 | 1.0 | 0.00 | 0.00 | 0.00 | 61 | 1017.4 |
| 20260502115013 | 38 | 0 | 0.0 | 2.0 | 0.00 | 0.00 | 0.00 | 59 | 1017.4 |
| 20260502114038 | 38 | 0 | 0.0 | 1.0 | 0.00 | 0.00 | 0.00 | 58 | 1017.4 |
| 20260502112238 | 40 | 0 | 0.0 | 1.0 | 0.00 | 0.00 | 0.00 | 56 | 1017.3 |
| 20260502111241 | 40 | 45 | 1.0 | 4.0 | 0.00 | 0.00 | 0.00 | 54 | 1017.2 |
| 20260502110323 | 41 | 22 | 2.0 | 4.0 | 0.00 | 0.00 | 0.00 | 56 | 1017.3 |
| 20260502105453 | 41 | 0 | 3.0 | 5.0 | 0.00 | 0.00 | 0.00 | 55 | 1017.2 |
| 20260502104654 | 42 | 22 | 3.0 | 4.0 | 0.00 | 0.00 | 0.00 | 55 | 1017.2 |
| 20260502103733 | 42 | 22 | 3.0 | 6.0 | 0.00 | 0.00 | 0.00 | 54 | 1017.1 |
| 20260502102848 | 41 | 0 | 4.0 | 8.0 | 0.00 | 0.00 | 0.00 | 55 | 1017.1 |
| 20260502101941 | 41 | 0 | 3.0 | 7.0 | 0.00 | 0.00 | 0.00 | 55 | 1017.2 |
| 20260502101018 | 41 | 0 | 4.0 | 6.0 | 0.00 | 0.00 | 0.00 | 57 | 1017.0 |
| 20260502100239 | 41 | 0 | 3.0 | 7.0 | 0.00 | 0.00 | 0.00 | 56 | 1017.0 |
| 20260502100153 | 41 | 0 | 3.0 | 7.0 | 0.00 | 0.00 | 0.00 | 56 | 1017.0 |
| 20260502090633 | 43 | 338 | 1.0 | 4.0 | 0.00 | 0.00 | 0.00 | 52 | 1016.8 |
| 20260502071231 | 40 | 0 | 0.0 | 1.0 | 0.00 | 0.00 | 0.00 | 49 | 1017.4 |
| 20260502070233 | 40 | 292 | 1.0 | 4.0 | 0.00 | 0.00 | 0.00 | 48 | 1017.5 |
| 20260502065423 | 41 | 0 | 0.0 | 2.0 | 0.00 | 0.00 | 0.00 | 47 | 1017.5 |
| 20260502064454 | 41 | 0 | 0.0 | 1.0 | 0.00 | 0.00 | 0.00 | 46 | 1017.6 |
| 20260502061935 | 42 | 270 | 1.0 | 2.0 | 0.00 | 0.00 | 0.00 | 47 | 1017.6 |
| 20260502061808 | 42 | 270 | 1.0 | 2.0 | 0.00 | 0.00 | 0.00 | 47 | 1017.6 |
| 20260502061422 | 42 | 248 | 1.0 | 2.0 | 0.00 | 0.00 | 0.00 | 45 | 1017.5 |
| 20260502060958 | 42 | 0 | 0.0 | 1.0 | 0.00 | 0.00 | 0.00 | 46 | 1017.6 |
| 20260502060154 | 42 | 248 | 1.0 | 2.0 | 0.00 | 0.00 | 0.00 | 45 | 1017.5 |
| 20260502055228 | 43 | 270 | 1.0 | 2.0 | 0.00 | 0.00 | 0.00 | 46 | 1017.6 |
| 20260502054318 | 43 | 0 | 0.0 | 0.0 | 0.00 | 0.00 | 0.00 | 46 | 1017.5 |
| 20260502051754 | 44 | 0 | 0.0 | 0.0 | 0.00 | 0.00 | 0.00 | 45 | 1017.5 |
| 20260502050819 | 45 | 0 | 0.0 | 0.0 | 0.00 | 0.00 | 0.00 | 46 | 1017.4 |
| 20260502045841 | 45 | 0 | 0.0 | 0.0 | 0.00 | 0.00 | 0.00 | 43 | 1017.4 |
| 20260502045033 | 46 | 0 | 0.0 | 1.0 | 0.00 | 0.00 | 0.00 | 42 | 1017.3 |
| 20260502044158 | 46 | 0 | 0.0 | 1.0 | 0.00 | 0.00 | 0.00 | 41 | 1017.3 |
| 20260502042414 | 48 | 270 | 1.0 | 2.0 | 0.00 | 0.00 | 0.00 | 40 | 1017.1 |
| 20260502035934 | 49 | 0 | 0.0 | 1.0 | 0.00 | 0.00 | 0.00 | 38 | 1017.0 |
| 20260502035658 | 49 | 0 | 0.0 | 1.0 | 0.00 | 0.00 | 0.00 | 38 | 1017.0 |
| 20260502035022 | 50 | 22 | 1.0 | 2.0 | 0.00 | 0.00 | 0.00 | 38 | 1016.9 |
| 20260502034820 | 50 | 22 | 1.0 | 2.0 | 0.00 | 0.00 | 0.00 | 38 | 1016.9 |
| 20260502033908 | 51 | 22 | 1.0 | 3.0 | 0.00 | 0.00 | 0.00 | 39 | 1016.8 |
| 20260502033021 | 51 | 0 | 1.0 | 2.0 | 0.00 | 0.00 | 0.00 | 35 | 1016.6 |
| 20260502032223 | 51 | 0 | 1.0 | 2.0 | 0.00 | 0.00 | 0.00 | 35 | 1016.5 |
| 20260502030418 | 52 | 0 | 1.0 | 2.0 | 0.00 | 0.00 | 0.00 | 35 | 1016.4 |